[[{"header":{"parameterUnit":"m.s-1","parameterCategory":2,"la1":30.2991,"la2":30.254,"lo1":-89.0895,"lo2":-89.0444,"dy":0.0017,"dx":0.0017,"nx":28,"ny":28,"refTime":"2025-09-03T03:00:00:Z","depth":"0","parameterNumber":2,"parameterNumberName":"U-component_of_CURRENTS"},"data":[0,0,0,0,0,0,0,0,0,0,0,0,0,0,0,0,0,0,0,0,0,0,0,0,0,0,0,0,0,0,0,0,0,0,0,0,0,0,0,0,0,0,0,0,0,0,0,0,0,0,0,0,0,0,0,0,0,0,0.2216,0.2215,0,0.2138,0.2137,0.2136,0.2087,0.2087,0.2086,0.2086,0.2052,0.2052,0.2051,0,0,0,0,0,0,0,0,0,0,0,0,0,0.2297,0.2296,0.2216,0.2215,0.2214,0.2138,0.2137,0.2136,0.2087,0.2087,0.2086,0.2086,0.2053,0.2052,0.2051,0,0,0,0,0,0,0,0,0,0,0,0,0,0.2245,0.2295,0.2216,0.218,0.2176,0.2138,0.2137,0.2136,0.2087,0.2087,0.2086,0.2086,0.2053,0.2052,0.2051,0.2056,0,0,0.2048,0.2048,0,0,0,0,0,0,0,0,0.2248,0.2242,0.2186,0.2182,0.2178,0.2121,0.2153,0.2111,0.2087,0.2121,0.2086,0.2085,0.2079,0.2076,0.2063,0.2054,0.2053,0.2048,0.2048,0.2047,0.2047,0,0,0,0,0,0,0,0.2252,0.2245,0.2186,0.2185,0.218,0.2159,0.2151,0.2144,0.2106,0.2118,0.2115,0.2105,0.2077,0.2064,0.2062,0.2052,0.2048,0.2048,0.2047,0.2047,0.2056,0.2057,0,0,0,0,0,0,0.2262,0.2249,0.2188,0.2183,0.2212,0.2158,0.2149,0.214,0.2105,0.2098,0.2106,0.2103,0.2066,0.2063,0.2061,0.2071,0.2047,0.2047,0.2046,0.2055,0.2056,0.2057,0,0,0,0,0,0,0.2264,0.2257,0.2191,0.2214,0.2204,0.2157,0.2147,0.2139,0.2124,0.2094,0.2088,0.2099,0.2065,0.2062,0.2052,0.2069,0.2046,0.2045,0.2054,0.2055,0.2056,0.2087,0,0,0,0,0,0,0.2267,0.2259,0.2257,0.2214,0.2203,0.2169,0.2147,0.2138,0.2118,0.2114,0.2087,0.2083,0.2065,0.2054,0.2052,0.2067,0.2045,0.2053,0.2055,0.2056,0.2085,0.2089,0.2092,0,0,0,0,0,0.227,0.2265,0.2257,0.225,0.2202,0.2169,0.2162,0.2127,0.2119,0.2112,0.2094,0.2083,0.2062,0.2053,0.2051,0.2066,0.2052,0.2054,0.2056,0.2083,0.2088,0.2092,0,0,0,0,0,0,0.2296,0.2259,0.2249,0.2233,0.2206,0.2161,0.2151,0.2132,0.2111,0.2111,0.2086,0.2081,0.208,0.2071,0.2062,0.2075,0.2059,0.206,0.2081,0.2085,0.2089,0.2103,0.2044,0,0,0,0,0,0.2303,0.229,0.2255,0.2241,0.2232,0.2196,0.218,0.2158,0.2132,0.2122,0.2102,0.209,0.2086,0.2083,0.2073,0.2078,0.21,0.2089,0.2093,0.2096,0.2107,0.2176,0.2188,0.2062,0.2062,0.2062,0,0,0.2307,0.2287,0.2278,0.2246,0.2224,0.2204,0.2185,0.2163,0.215,0.2125,0.2107,0.21,0.209,0.2091,0.2092,0.2085,0.2139,0.2098,0.2101,0.211,0.2179,0.2192,0.2203,0.2064,0.2063,0.2063,0,0,0.2297,0.2296,0.2275,0.226,0.223,0.2214,0.2211,0.2174,0.2165,0.2149,0.2134,0.214,0.2119,0.2121,0.2119,0.2142,0.2156,0.214,0.2171,0.2238,0.2249,0.2259,0.2285,0.2298,0.2143,0.2144,0.2144,0,0.23,0.2272,0.2264,0.2243,0.2232,0.2221,0.2201,0.2193,0.2157,0.2166,0.2149,0.2156,0.2138,0.2164,0.2162,0.2152,0.2182,0.2152,0.2244,0.2255,0.2265,0.229,0.2303,0.2145,0.2145,0.2145,0.2145,0,0.2265,0.2251,0.2243,0.2216,0.2211,0.2195,0.2189,0.2193,0.219,0.2184,0.221,0.2198,0.2211,0.2205,0.2182,0.2245,0.2238,0.2241,0.2235,0.228,0.2302,0.2315,0.2148,0.2147,0.2147,0.2146,0,0,0.2232,0.222,0.2213,0.2208,0.2199,0.2188,0.2201,0.2207,0.2235,0.2226,0.2266,0.2254,0.2272,0.2273,0.2267,0.231,0.2384,0.2303,0.2306,0.2332,0.2515,0.2412,0.2416,0.2414,0.2417,0.2419,0.2495,0,0.2198,0.2165,0.2172,0.2153,0.2139,0.2166,0.2184,0.2203,0.2231,0.2273,0.23,0.2332,0.2294,0.2317,0.2356,0.2386,0.2424,0.2362,0.2465,0.2467,0.2375,0.2431,0.2311,0.2361,0.2508,0.251,0.2512,0,0.2136,0.2133,0.2108,0.2135,0.2136,0.2137,0.2194,0.2211,0.2287,0.2319,0.2376,0.2406,0.2465,0.2435,0.2523,0.249,0.2503,0.2519,0.2523,0.2429,0.239,0.2344,0.238,0.231,0.2533,0.2531,0.2529,0,0.2085,0.2081,0.2068,0.207,0.2103,0.2121,0.2151,0.222,0.2263,0.2365,0.2422,0.2496,0.2543,0.2599,0.261,0.259,0.2705,0.2687,0.2605,0.2597,0.2515,0.2493,0.2499,0.276,0.276,0.276,0.276,0,0.2027,0.2013,0.2047,0.2038,0.206,0.2097,0.2147,0.2199,0.2298,0.2364,0.2447,0.2513,0.2591,0.2655,0.2664,0.2669,0.2754,0.2622,0.2622,0.2516,0.2495,0.2444,0.2411,0.2763,0.2762,0.2762,0.2761,0,0.1949,0.1965,0.1959,0.2008,0.2026,0.2042,0.2132,0.2182,0.2284,0.2383,0.2426,0.2548,0.2628,0.2682,0.2766,0.2719,0.2661,0.2723,0.2564,0.2542,0.2366,0.2338,0.228,0.2211,0.2655,0.2653,0.2651,0,0.1898,0.1887,0.1931,0.1944,0.1962,0.2005,0.2048,0.2154,0.2221,0.2389,0.2438,0.2554,0.2618,0.2691,0.2656,0.2667,0.26,0.2531,0.2461,0.2348,0.232,0.2247,0.2189,0.2366,0.2362,0.2359,0.2356,0,0.1825,0.1845,0.1855,0.1882,0.1915,0.196,0.2033,0.2081,0.2221,0.2309,0.2418,0.2488,0.2561,0.2511,0.2508,0.2493,0.2389,0.2463,0.2418,0.2149,0.2003,0.1938,0.2302,0.2329,0.2331,0.2333,0.2335,0.2336,0.1779,0.1773,0.1797,0.1814,0.1855,0.1896,0.1911,0.2003,0.2082,0.2183,0.2304,0.2347,0.2367,0.2344,0.2313,0.2158,0.2185,0.2068,0.2062,0.2013,0.1883,0.2149,0.2124,0.2126,0.2127,0.2128,0.2129,0,0.1717,0.1719,0.1733,0.175,0.1761,0.1812,0.1885,0.1891,0.1934,0.2033,0.2097,0.2096,0.204,0.2036,0.1912,0.1791,0.1723,0.1723,0.1624,0.1602,0.1912,0.1833,0.1655,0.1655,0.1655,0.1655,0.1655,0.1655,0.1687,0.1665,0.1666,0.1646,0.1661,0.1653,0.1671,0.1692,0.1741,0.1739,0.1733,0.1778,0.1843,0.1761,0.1606,0.1543,0.143,0.1323,0.1351,0.1592,0.1625,0.1656,0.1575,0.1346,0.1345,0.0974,0.0971,0.0969]},{"header":{"parameterUnit":"m.s-1","parameterCategory":2,"la1":30.2991,"la2":30.254,"lo1":-89.0895,"lo2":-89.0444,"dy":0.0017,"dx":0.0017,"nx":28,"ny":28,"refTime":"2025-09-03T03:00:00:Z","depth":"0","parameterNumber":3,"parameterNumberName":"V-component_of_CURRENTS"},"data":[0,0,0,0,0,0,0,0,0,0,0,0,0,0,0,0,0,0,0,0,0,0,0,0,0,0,0,0,0,0,0,0,0,0,0,0,0,0,0,0,0,0,0,0,0,0,0,0,0,0,0,0,0,0,0,0,0,0,0.0164,0.0164,0,0.0153,0.0153,0.0153,0.0147,0.0147,0.0147,0.0147,0.013,0.013,0.0129,0,0,0,0,0,0,0,0,0,0,0,0,0,0.0168,0.0168,0.0164,0.0164,0.0163,0.0153,0.0153,0.0153,0.0147,0.0147,0.0147,0.0147,0.013,0.013,0.0129,0,0,0,0,0,0,0,0,0,0,0,0,0,0.0163,0.0168,0.0164,0.016,0.0159,0.0153,0.0153,0.0153,0.0147,0.0147,0.0147,0.0147,0.013,0.013,0.0129,0.0125,0,0,0.0127,0.0127,0,0,0,0,0,0,0,0,0.0163,0.0162,0.016,0.016,0.0159,0.0151,0.0148,0.0143,0.0147,0.0152,0.0147,0.0147,0.0137,0.0135,0.0133,0.0124,0.0123,0.0127,0.0126,0.0126,0.0126,0,0,0,0,0,0,0,0.0163,0.0163,0.0159,0.016,0.016,0.0154,0.0154,0.0147,0.0144,0.0151,0.0151,0.015,0.0136,0.0134,0.0133,0.0123,0.0127,0.0126,0.0126,0.0126,0.0116,0.0116,0,0,0,0,0,0,0.0165,0.0163,0.016,0.0159,0.0161,0.0154,0.0153,0.0154,0.0144,0.0143,0.015,0.015,0.0135,0.0134,0.0132,0.0139,0.0126,0.0126,0.0125,0.0116,0.0116,0.0116,0,0,0,0,0,0,0.0165,0.0165,0.016,0.0161,0.016,0.0154,0.0155,0.0154,0.0153,0.0143,0.0142,0.015,0.0135,0.0133,0.0132,0.0138,0.0125,0.0125,0.0115,0.0116,0.0116,0.0145,0,0,0,0,0,0,0.0166,0.0165,0.0167,0.0161,0.016,0.016,0.0155,0.0154,0.0152,0.0152,0.0143,0.0141,0.0135,0.0133,0.0131,0.0137,0.0124,0.0115,0.0116,0.0116,0.0144,0.0146,0.0148,0,0,0,0,0,0.0166,0.0172,0.0168,0.0167,0.0163,0.016,0.0159,0.0155,0.0152,0.0154,0.015,0.0142,0.0133,0.0133,0.013,0.0136,0.0115,0.0115,0.0116,0.0143,0.0146,0.0148,0,0,0,0,0,0,0.0177,0.0172,0.0167,0.0172,0.0166,0.0159,0.0161,0.0156,0.0154,0.0154,0.0145,0.0143,0.0144,0.0135,0.0134,0.0133,0.0122,0.0122,0.0144,0.0146,0.0148,0.0158,0.0123,0,0,0,0,0,0.018,0.0182,0.0174,0.0178,0.0176,0.0168,0.0166,0.0162,0.0158,0.0157,0.0151,0.0145,0.0143,0.0141,0.0136,0.0135,0.0131,0.0137,0.0139,0.0141,0.0147,0.0153,0.0157,0.0117,0.0117,0.0117,0,0,0.0185,0.0183,0.0184,0.018,0.0176,0.0179,0.0167,0.0166,0.0171,0.0156,0.0162,0.0153,0.0144,0.0146,0.0146,0.014,0.0147,0.0141,0.0143,0.0148,0.0154,0.0158,0.0161,0.0117,0.0117,0.0117,0,0,0.02,0.0195,0.0202,0.0199,0.0193,0.0188,0.0189,0.0182,0.0181,0.0181,0.0174,0.0171,0.0163,0.0162,0.016,0.017,0.0159,0.0164,0.0184,0.019,0.0194,0.0197,0.0187,0.0189,0.0165,0.0165,0.0165,0,0.0208,0.0215,0.0203,0.0209,0.0212,0.0194,0.0204,0.02,0.0194,0.02,0.0187,0.0187,0.0173,0.0186,0.0185,0.0176,0.0172,0.0176,0.0194,0.0197,0.02,0.0189,0.0191,0.0167,0.0167,0.0166,0.0166,0,0.0227,0.0232,0.0237,0.0239,0.0239,0.0244,0.0236,0.0237,0.0231,0.023,0.0237,0.022,0.0225,0.0214,0.0199,0.0213,0.0201,0.0197,0.019,0.0206,0.0193,0.0195,0.0169,0.0168,0.0168,0.0167,0,0,0.0253,0.0251,0.0254,0.0262,0.0256,0.0262,0.0268,0.0276,0.0294,0.0278,0.0306,0.0281,0.0275,0.0271,0.0255,0.025,0.0252,0.0229,0.0229,0.0224,0.0257,0.0232,0.023,0.0254,0.0255,0.0256,0.0237,0,0.0275,0.0292,0.0286,0.0307,0.0317,0.0307,0.032,0.0324,0.0324,0.0346,0.0329,0.0345,0.0297,0.0305,0.0291,0.0273,0.0259,0.0257,0.0238,0.0238,0.0218,0.0233,0.0256,0.0241,0.0238,0.0239,0.0239,0,0.0299,0.031,0.033,0.0348,0.0353,0.0362,0.0388,0.0399,0.0416,0.0421,0.0426,0.0418,0.0413,0.0373,0.0338,0.034,0.0297,0.027,0.0269,0.0239,0.0216,0.0226,0.0243,0.0183,0.0241,0.0241,0.0241,0,0.0328,0.0344,0.0363,0.0368,0.0382,0.0394,0.0407,0.0423,0.0454,0.0478,0.0509,0.0491,0.05,0.045,0.038,0.0366,0.034,0.0319,0.0252,0.0249,0.0262,0.0259,0.0225,0.0291,0.0291,0.0291,0.0291,0,0.0355,0.0374,0.0378,0.0392,0.0431,0.0427,0.0476,0.0486,0.0525,0.0584,0.0556,0.0597,0.052,0.0494,0.0416,0.0341,0.0368,0.0259,0.0248,0.027,0.0268,0.021,0.0158,0.029,0.0291,0.0291,0.0291,0,0.0382,0.0382,0.0412,0.0432,0.0443,0.0474,0.0526,0.0568,0.0592,0.0672,0.0689,0.0686,0.0652,0.0563,0.0486,0.0395,0.0282,0.0285,0.0304,0.0295,0.0166,0.0115,0.0045,0.0014,0.0212,0.0212,0.0211,0,0.0396,0.041,0.0445,0.0474,0.0484,0.0529,0.0569,0.0602,0.0657,0.0734,0.0784,0.0771,0.0787,0.0652,0.0495,0.0359,0.0274,0.0266,0.0237,0.0166,0.0101,0.006,0.0036,0.0262,0.0261,0.0261,0.0261,0,0.0429,0.0438,0.0464,0.052,0.0563,0.0621,0.0681,0.0736,0.0796,0.0868,0.095,0.097,0.0846,0.0723,0.0514,0.0409,0.0221,0.0258,0.0195,0.0142,0.0088,0.0052,0.0251,0.0261,0.0261,0.0261,0.0261,0.0261,0.0456,0.0481,0.0514,0.0571,0.0625,0.0703,0.0762,0.0844,0.0944,0.1059,0.1067,0.1118,0.0926,0.0653,0.0502,0.023,0.0206,0.015,0.0094,0.0062,0.0027,0.021,0.0198,0.0198,0.0197,0.0197,0.0197,0,0.0485,0.0513,0.0566,0.0632,0.0698,0.0722,0.0832,0.0905,0.1032,0.1138,0.1212,0.1154,0.0925,0.0667,0.0296,0.0111,0.0047,0.0009,-0.0026,-0.0042,0.0142,0.0142,0.0106,0.0106,0.0106,0.0106,0.0106,0.0106,0.0501,0.0547,0.0571,0.0675,0.0729,0.0824,0.089,0.1008,0.1102,0.1229,0.1267,0.1279,0.109,0.0455,0.006,-0.0031,-0.0151,-0.0188,-0.0259,-0.0116,-0.0106,-0.0097,-0.0108,-0.0195,-0.0196,-0.0394,-0.0396,-0.0397]}],[{"header":{"parameterUnit":"m.s-1","parameterCategory":2,"la1":30.2991,"la2":30.254,"lo1":-89.0895,"lo2":-89.0444,"dy":0.0017,"dx":0.0017,"nx":28,"ny":28,"refTime":"2025-09-03T03:00:00:Z","depth":"2","parameterNumber":2,"parameterNumberName":"U-component_of_CURRENTS"},"data":[0,0,0,0,0,0,0,0,0,0,0,0,0,0,0,0,0,0,0,0,0,0,0,0,0,0,0,0,0,0,0,0,0,0,0,0,0,0,0,0,0,0,0,0,0,0,0,0,0,0,0,0,0,0,0,0,0,0,0.1912,0.1912,0,0.1902,0.1902,0.1902,0.1888,0.1888,0.1888,0.1888,0.1878,0.1878,0.1878,0,0,0,0,0,0,0,0,0,0,0,0,0,0.1885,0.1885,0.1912,0.1912,0.1912,0.1902,0.1902,0.1902,0.1888,0.1888,0.1888,0.1888,0.1878,0.1878,0.1878,0,0,0,0,0,0,0,0,0,0,0,0,0,0.1886,0.1885,0.1912,0.1905,0.1904,0.1902,0.1902,0.1902,0.1888,0.1888,0.1888,0.1887,0.1878,0.1878,0.1878,0.1878,0,0,0.1877,0.1877,0,0,0,0,0,0,0,0,0.1886,0.1887,0.1906,0.1906,0.1905,0.1898,0.1889,0.1894,0.1888,0.1892,0.1888,0.1887,0.1886,0.1885,0.1881,0.1878,0.1878,0.1877,0.1877,0.1876,0.1876,0,0,0,0,0,0,0,0.1886,0.1887,0.1906,0.1906,0.1905,0.1891,0.1891,0.189,0.1889,0.1892,0.1891,0.1893,0.1885,0.1881,0.1881,0.1877,0.1877,0.1876,0.1876,0.1876,0.1902,0.1903,0,0,0,0,0,0,0.1893,0.1888,0.1907,0.1906,0.1897,0.1892,0.1892,0.1899,0.1889,0.1887,0.1893,0.1892,0.1882,0.1881,0.188,0.1904,0.1876,0.1876,0.1876,0.1901,0.1902,0.1903,0,0,0,0,0,0,0.1892,0.1895,0.1907,0.1897,0.1898,0.1893,0.19,0.1899,0.1901,0.189,0.1888,0.1898,0.1882,0.1881,0.1882,0.1903,0.1876,0.1876,0.19,0.1902,0.1903,0.1937,0,0,0,0,0,0,0.1892,0.1895,0.1903,0.1898,0.1899,0.191,0.19,0.1899,0.1903,0.1902,0.1894,0.1892,0.1881,0.1883,0.1882,0.1902,0.1876,0.1899,0.1901,0.1902,0.1935,0.194,0.1943,0,0,0,0,0,0.1891,0.1899,0.1904,0.1906,0.1911,0.1911,0.191,0.1904,0.1903,0.1906,0.19,0.1893,0.1893,0.1883,0.1882,0.1902,0.1898,0.19,0.1902,0.1933,0.1939,0.1943,0,0,0,0,0,0,0.1886,0.1899,0.1903,0.1914,0.1917,0.1909,0.1913,0.1911,0.1908,0.191,0.1897,0.1895,0.1907,0.19,0.1889,0.1916,0.1897,0.1899,0.1921,0.1926,0.1931,0.1937,0.1875,0,0,0,0,0,0.1892,0.1905,0.191,0.192,0.1924,0.1922,0.1922,0.1921,0.1918,0.1917,0.1911,0.191,0.1913,0.1915,0.1914,0.1925,0.1934,0.194,0.1944,0.1947,0.1953,0.2,0.2009,0.1909,0.1909,0.1909,0,0,0.1891,0.1902,0.1908,0.192,0.1923,0.1927,0.1921,0.1928,0.1933,0.1917,0.1922,0.1923,0.1919,0.1931,0.1937,0.1928,0.1978,0.195,0.1953,0.1956,0.2003,0.2013,0.2022,0.1911,0.191,0.191,0,0,0.1894,0.191,0.192,0.1925,0.1937,0.1936,0.1942,0.1943,0.1947,0.1953,0.1947,0.196,0.1958,0.1963,0.1965,0.1993,0.1998,0.1997,0.2024,0.207,0.2079,0.2087,0.2099,0.2107,0.2,0.2,0.2,0,0.1892,0.1906,0.1921,0.193,0.1934,0.1943,0.1948,0.1954,0.1955,0.1966,0.196,0.1981,0.1975,0.2,0.2008,0.2003,0.2022,0.2004,0.2076,0.2084,0.2092,0.2102,0.2112,0.2002,0.2002,0.2002,0.2002,0,0.19,0.191,0.1917,0.1934,0.1942,0.1948,0.1961,0.1974,0.1983,0.1991,0.2021,0.2021,0.2036,0.204,0.203,0.2083,0.2075,0.2076,0.2064,0.2104,0.2112,0.2121,0.2005,0.2004,0.2004,0.2003,0,0,0.189,0.1917,0.1918,0.1924,0.1945,0.1948,0.1971,0.1992,0.2016,0.2029,0.2062,0.2073,0.2087,0.2091,0.2092,0.2128,0.2188,0.2128,0.213,0.2141,0.2276,0.2203,0.2205,0.2212,0.2214,0.2216,0.2255,0,0.1888,0.19,0.192,0.1927,0.193,0.1955,0.1978,0.2003,0.2028,0.2064,0.209,0.2123,0.2103,0.2126,0.2158,0.2188,0.2216,0.2175,0.2235,0.2236,0.2168,0.2215,0.2028,0.2042,0.2264,0.2265,0.2266,0,0.188,0.1891,0.1897,0.1925,0.1932,0.1945,0.1989,0.2016,0.2075,0.2103,0.2145,0.2167,0.2218,0.2204,0.2272,0.2252,0.2265,0.2282,0.2284,0.2212,0.218,0.2041,0.205,0.2281,0.228,0.2279,0.2278,0,0.1845,0.187,0.1874,0.188,0.1918,0.1938,0.1971,0.2026,0.206,0.2142,0.218,0.2234,0.2278,0.2315,0.2337,0.2322,0.2411,0.2392,0.2331,0.2324,0.2172,0.2149,0.2442,0.2442,0.2442,0.2442,0.2442,0,0.182,0.1821,0.186,0.186,0.1884,0.1927,0.1967,0.2016,0.209,0.2138,0.2204,0.2245,0.2316,0.2363,0.237,0.2376,0.2437,0.2343,0.234,0.2176,0.2154,0.2367,0.2358,0.2444,0.2443,0.2443,0.2443,0,0.1768,0.1792,0.1799,0.1845,0.1862,0.1884,0.1957,0.1994,0.208,0.2148,0.2184,0.2277,0.2341,0.2384,0.2451,0.2414,0.2433,0.2415,0.22,0.2171,0.2301,0.2294,0.2351,0.2349,0.2347,0.2346,0.2345,0,0.1737,0.1736,0.1777,0.1789,0.181,0.1852,0.1887,0.1976,0.2022,0.215,0.2182,0.2277,0.2303,0.2365,0.2347,0.2347,0.2404,0.2162,0.2093,0.2306,0.2298,0.2292,0.2287,0.19,0.1895,0.1891,0.1888,0,0.1685,0.1705,0.1717,0.174,0.177,0.1799,0.1861,0.1883,0.1999,0.2051,0.2118,0.2153,0.2222,0.2135,0.2151,0.2123,0.2147,0.2081,0.2387,0.195,0.1883,0.1874,0.1883,0.1853,0.1857,0.1859,0.1861,0.1862,0.1651,0.1646,0.1669,0.1683,0.1716,0.173,0.1728,0.1788,0.1824,0.1877,0.1976,0.1965,0.1994,0.1909,0.185,0.181,0.1958,0.1858,0.1869,0.1885,0.1824,0.1758,0.1691,0.1694,0.1696,0.1698,0.1699,0,0.1599,0.1601,0.1613,0.1622,0.1621,0.1666,0.1697,0.1669,0.1659,0.1722,0.1745,0.1602,0.1541,0.1576,0.1458,0.1451,0.143,0.1387,0.1344,0.138,0.1411,0.1325,0.1061,0.1059,0.1057,0.1055,0,0,0.1575,0.1554,0.1552,0.1518,0.1528,0.1496,0.1488,0.1453,0.1461,0.1405,0.1384,0.1483,0.1533,0.1281,0.1246,0.1132,0.1247,0.1084,0.16,0.1586,0.1615,0.169,0.1599,0,0,0,0,0]},{"header":{"parameterUnit":"m.s-1","parameterCategory":2,"la1":30.2991,"la2":30.254,"lo1":-89.0895,"lo2":-89.0444,"dy":0.0017,"dx":0.0017,"nx":28,"ny":28,"refTime":"2025-09-03T03:00:00:Z","depth":"2","parameterNumber":3,"parameterNumberName":"V-component_of_CURRENTS"},"data":[0,0,0,0,0,0,0,0,0,0,0,0,0,0,0,0,0,0,0,0,0,0,0,0,0,0,0,0,0,0,0,0,0,0,0,0,0,0,0,0,0,0,0,0,0,0,0,0,0,0,0,0,0,0,0,0,0,0,0.0084,0.0084,0,0.0078,0.0077,0.0077,0.0073,0.0073,0.0073,0.0073,0.0058,0.0057,0.0057,0,0,0,0,0,0,0,0,0,0,0,0,0,0.0079,0.008,0.0084,0.0084,0.0084,0.0078,0.0077,0.0077,0.0073,0.0073,0.0073,0.0073,0.0058,0.0057,0.0057,0,0,0,0,0,0,0,0,0,0,0,0,0,0.0078,0.008,0.0084,0.0081,0.0081,0.0078,0.0077,0.0077,0.0073,0.0073,0.0073,0.0073,0.0058,0.0057,0.0057,0.0053,0,0,0.0055,0.0055,0,0,0,0,0,0,0,0,0.0078,0.0078,0.0082,0.0081,0.0081,0.0076,0.007,0.0069,0.0073,0.0076,0.0073,0.0073,0.0063,0.0062,0.0061,0.0052,0.0051,0.0055,0.0054,0.0054,0.0054,0,0,0,0,0,0,0,0.0078,0.0078,0.0081,0.0081,0.0081,0.0076,0.0076,0.007,0.0069,0.0075,0.0075,0.0075,0.0063,0.0061,0.006,0.0051,0.0055,0.0054,0.0054,0.0054,0.0046,0.0046,0,0,0,0,0,0,0.008,0.0078,0.0081,0.0081,0.008,0.0076,0.0076,0.0078,0.0069,0.0068,0.0075,0.0075,0.0062,0.0061,0.006,0.0068,0.0054,0.0054,0.0053,0.0046,0.0046,0.0046,0,0,0,0,0,0,0.008,0.0081,0.0081,0.008,0.0079,0.0076,0.0078,0.0077,0.0077,0.0069,0.0068,0.0076,0.0062,0.0061,0.006,0.0067,0.0053,0.0053,0.0046,0.0046,0.0046,0.0075,0,0,0,0,0,0,0.008,0.0081,0.0083,0.008,0.008,0.0083,0.0078,0.0077,0.0077,0.0077,0.0069,0.0068,0.0062,0.0061,0.0059,0.0065,0.0052,0.0045,0.0046,0.0046,0.0074,0.0076,0.0079,0,0,0,0,0,0.008,0.0087,0.0083,0.0083,0.0083,0.0083,0.0082,0.008,0.0077,0.0079,0.0076,0.0068,0.0062,0.0061,0.0059,0.0065,0.0045,0.0046,0.0046,0.0073,0.0076,0.0078,0,0,0,0,0,0,0.0089,0.0087,0.0083,0.0089,0.0086,0.0082,0.0085,0.0081,0.0079,0.0079,0.0071,0.007,0.0071,0.0063,0.0062,0.0063,0.0052,0.0052,0.0073,0.0076,0.0078,0.0086,0.0052,0,0,0,0,0,0.0091,0.0094,0.009,0.0095,0.0094,0.0088,0.0088,0.0085,0.0083,0.0082,0.0078,0.0073,0.0071,0.0069,0.0065,0.0065,0.0057,0.0067,0.0069,0.0071,0.0076,0.0074,0.0077,0.0047,0.0047,0.0047,0,0,0.0096,0.0095,0.0097,0.0097,0.0094,0.0099,0.0088,0.0089,0.0096,0.0081,0.0088,0.008,0.0073,0.0076,0.0075,0.007,0.0073,0.0072,0.0074,0.0077,0.0075,0.0078,0.0081,0.0048,0.0048,0.0048,0,0,0.011,0.0106,0.0114,0.0113,0.011,0.0107,0.0108,0.0105,0.0104,0.0106,0.01,0.0098,0.0092,0.0091,0.0089,0.01,0.0086,0.0095,0.0114,0.0112,0.0115,0.0117,0.0104,0.0104,0.0096,0.0097,0.0097,0,0.0118,0.0127,0.0117,0.0124,0.0128,0.0113,0.0124,0.0122,0.0119,0.0125,0.0112,0.0113,0.0101,0.0113,0.0114,0.0106,0.0098,0.0106,0.0116,0.0118,0.012,0.0105,0.0106,0.0098,0.0098,0.0098,0.0098,0,0.0138,0.0145,0.015,0.0155,0.0156,0.0162,0.0157,0.0159,0.0154,0.0154,0.016,0.0145,0.0147,0.014,0.0128,0.0138,0.0125,0.012,0.0111,0.0125,0.0108,0.0108,0.01,0.01,0.0099,0.0099,0,0,0.0163,0.0164,0.0168,0.0176,0.0173,0.018,0.0188,0.0197,0.0213,0.0199,0.0221,0.0203,0.0194,0.019,0.0175,0.0168,0.0165,0.0149,0.0148,0.0139,0.0153,0.0141,0.0139,0.0163,0.0163,0.0163,0.0135,0,0.0185,0.0204,0.02,0.0223,0.0233,0.0224,0.0238,0.0243,0.0243,0.0259,0.0241,0.0254,0.0214,0.0218,0.0203,0.0183,0.0168,0.0173,0.0139,0.0138,0.0128,0.014,0.0152,0.0128,0.0135,0.0135,0.0135,0,0.0211,0.0222,0.0243,0.0261,0.0266,0.0277,0.03,0.0313,0.0325,0.0327,0.0326,0.0314,0.0305,0.0269,0.0229,0.0235,0.0193,0.0168,0.0166,0.0146,0.0126,0.0116,0.0127,0.0134,0.0134,0.0134,0.0134,0,0.0237,0.0256,0.0274,0.0279,0.0294,0.0307,0.0321,0.0335,0.0362,0.0375,0.0399,0.0373,0.0376,0.0324,0.0259,0.0248,0.0214,0.0194,0.0139,0.0137,0.0137,0.0135,0.0161,0.0161,0.0161,0.0161,0.0161,0,0.0264,0.0283,0.0288,0.0301,0.0338,0.0337,0.0381,0.0392,0.0422,0.0473,0.0439,0.0469,0.0391,0.0361,0.0286,0.0216,0.0232,0.0146,0.0134,0.0146,0.0145,0.0143,0.0142,0.016,0.016,0.0161,0.0161,0,0.029,0.029,0.0319,0.0339,0.035,0.038,0.0427,0.0465,0.0484,0.055,0.0562,0.0549,0.0511,0.0424,0.0345,0.0262,0.0192,0.0159,0.0171,0.0161,0.0105,0.0105,0.0096,0.0096,0.0095,0.0095,0.0094,0,0.0303,0.0318,0.035,0.0378,0.0388,0.043,0.0468,0.0496,0.0547,0.0606,0.0649,0.0628,0.0627,0.0495,0.0358,0.0228,0.0201,0.0136,0.0113,0.0111,0.01,0.0101,0.0102,0.0118,0.0118,0.0118,0.0118,0,0.0335,0.0344,0.0369,0.0421,0.0462,0.0515,0.0573,0.0621,0.0673,0.0727,0.0789,0.079,0.0673,0.0547,0.0359,0.0266,0.0157,0.0129,0.0139,0.0134,0.013,0.012,0.0121,0.0117,0.0117,0.0117,0.0118,0.0118,0.0362,0.0385,0.0417,0.047,0.0521,0.0594,0.0649,0.072,0.0804,0.0888,0.0884,0.0884,0.0736,0.0503,0.0338,0.0156,0.0167,0.0089,0.0091,0.0092,0.01,0.0096,0.0078,0.0077,0.0077,0.0077,0.0077,0,0.0392,0.0418,0.0467,0.0529,0.0591,0.0615,0.0717,0.0777,0.088,0.0942,0.0985,0.0845,0.0703,0.0524,0.0263,0.0106,0.0091,0.0044,0.0062,0.0064,0.0066,0.0073,0.0043,0.0043,0.0042,0.0042,0,0,0.0409,0.0451,0.0473,0.0571,0.0623,0.0714,0.0776,0.0867,0.093,0.0986,0.0983,0.0968,0.0759,0.056,0.0352,0.0197,0.0161,0.016,0.0206,0.0254,0.0257,0.0113,0.013,0,0,0,0,0]}],[{"header":{"parameterUnit":"m.s-1","parameterCategory":2,"la1":30.2991,"la2":30.254,"lo1":-89.0895,"lo2":-89.0444,"dy":0.0017,"dx":0.0017,"nx":28,"ny":28,"refTime":"2025-09-03T03:00:00:Z","depth":"4","parameterNumber":2,"parameterNumberName":"U-component_of_CURRENTS"},"data":[0,0,0,0,0,0,0,0,0,0,0,0,0,0,0,0,0,0,0,0,0,0,0,0,0,0,0,0,0,0,0,0,0,0,0,0,0,0,0,0,0,0,0,0,0,0,0,0,0,0,0,0,0,0,0,0,0,0,0.1118,0.1119,0,0.118,0.1181,0.1181,0.122,0.1221,0.1222,0.1222,0.1246,0.1246,0.1247,0,0,0,0,0,0,0,0,0,0,0,0,0,0.1041,0.1042,0.1118,0.1119,0.1121,0.118,0.1181,0.1181,0.122,0.1221,0.1222,0.1222,0.1246,0.1246,0.1247,0,0,0,0,0,0,0,0,0,0,0,0,0,0.1083,0.1043,0.1118,0.115,0.1154,0.118,0.1181,0.1181,0.122,0.1221,0.1222,0.1223,0.1246,0.1246,0.1247,0.1231,0,0,0.1247,0.1247,0,0,0,0,0,0,0,0,0.108,0.1085,0.1144,0.1148,0.1152,0.1197,0.1163,0.1197,0.122,0.1191,0.1222,0.1223,0.1228,0.123,0.1235,0.1232,0.1233,0.1247,0.1247,0.1247,0.1247,0,0,0,0,0,0,0,0.1077,0.1083,0.1139,0.1145,0.115,0.1164,0.117,0.1169,0.1201,0.1194,0.1198,0.121,0.1229,0.1235,0.1236,0.1234,0.1247,0.1247,0.1247,0.1248,0.1297,0.1298,0,0,0,0,0,0,0.1076,0.108,0.1137,0.1142,0.1122,0.1165,0.1172,0.1179,0.1202,0.1207,0.1209,0.1212,0.1234,0.1235,0.1237,0.129,0.1247,0.1248,0.1248,0.1296,0.1297,0.1299,0,0,0,0,0,0,0.1074,0.108,0.1135,0.1115,0.1124,0.1166,0.1173,0.1179,0.1213,0.1214,0.1219,0.124,0.1235,0.1236,0.1264,0.1288,0.1248,0.1248,0.1294,0.1296,0.1298,0.1351,0,0,0,0,0,0,0.1071,0.1079,0.1093,0.1115,0.1125,0.1167,0.1173,0.118,0.1219,0.1224,0.1241,0.1243,0.1235,0.1264,0.1264,0.1288,0.1248,0.1293,0.1295,0.1297,0.1348,0.1354,0.136,0,0,0,0,0,0.1068,0.1081,0.1092,0.11,0.1139,0.1168,0.1174,0.1204,0.122,0.1237,0.1255,0.1244,0.1279,0.1265,0.1265,0.129,0.1292,0.1295,0.1297,0.1345,0.1353,0.136,0,0,0,0,0,0,0.1057,0.1087,0.11,0.1123,0.1152,0.1176,0.12,0.1219,0.1246,0.1259,0.1257,0.126,0.1294,0.1285,0.127,0.1311,0.1284,0.1287,0.132,0.1328,0.1334,0.1324,0.1248,0,0,0,0,0,0.106,0.108,0.1108,0.1131,0.1147,0.1178,0.1199,0.122,0.1245,0.126,0.1272,0.1286,0.1299,0.131,0.1316,0.1336,0.1332,0.1353,0.1359,0.1364,0.1357,0.1379,0.1386,0.1307,0.1307,0.1307,0,0,0.1065,0.1085,0.1098,0.1132,0.1157,0.1181,0.1193,0.1233,0.1257,0.1255,0.1296,0.1309,0.131,0.1337,0.1351,0.1337,0.1388,0.1368,0.1372,0.1362,0.1383,0.139,0.1397,0.1309,0.1309,0.1309,0,0,0.1081,0.1101,0.1123,0.1146,0.119,0.1204,0.1221,0.1259,0.1284,0.1321,0.1328,0.1357,0.1378,0.1383,0.1387,0.1429,0.1421,0.1439,0.1462,0.1484,0.1491,0.1496,0.1513,0.152,0.1442,0.1442,0.1442,0,0.1089,0.1113,0.1136,0.1161,0.1182,0.1216,0.1241,0.1266,0.1311,0.1329,0.1343,0.1388,0.1395,0.142,0.1441,0.1442,0.1454,0.1434,0.1492,0.1497,0.1502,0.1518,0.1524,0.1445,0.1444,0.1444,0.1444,0,0.1114,0.1141,0.1157,0.1194,0.1217,0.1248,0.1279,0.1311,0.1345,0.1368,0.1415,0.1433,0.1457,0.1471,0.1471,0.151,0.1508,0.1499,0.1472,0.1513,0.1527,0.1533,0.1449,0.1448,0.1447,0.1446,0,0,0.1115,0.1164,0.1174,0.119,0.1237,0.1254,0.1295,0.1331,0.1358,0.1409,0.1444,0.1482,0.1501,0.1506,0.1517,0.1539,0.1593,0.154,0.154,0.1554,0.1648,0.1545,0.1541,0.1602,0.1603,0.1604,0.1649,0,0.1132,0.1172,0.1195,0.1232,0.125,0.1284,0.1312,0.1351,0.1389,0.1429,0.1465,0.1503,0.1511,0.1536,0.1562,0.1584,0.1609,0.1581,0.1607,0.1608,0.1509,0.1544,0.1607,0.1653,0.1655,0.1656,0.1656,0,0.1146,0.1169,0.1206,0.1239,0.1252,0.128,0.1322,0.1355,0.1411,0.1444,0.1491,0.152,0.1569,0.157,0.1629,0.1616,0.1637,0.1651,0.1653,0.1536,0.1514,0.16,0.1666,0.1666,0.1665,0.1664,0.1664,0,0.1121,0.1172,0.1198,0.1213,0.1259,0.1285,0.1314,0.1365,0.1393,0.1462,0.1495,0.1548,0.1592,0.1624,0.1665,0.1657,0.1722,0.1709,0.1634,0.1627,0.1683,0.1677,0.1746,0.1746,0.1746,0.1746,0.1746,0,0.111,0.1133,0.1192,0.1205,0.1235,0.1275,0.1313,0.1352,0.1408,0.1438,0.1508,0.1538,0.1613,0.1659,0.1678,0.1673,0.1736,0.1636,0.163,0.1707,0.1702,0.1688,0.1681,0.1748,0.1747,0.1747,0.1747,0,0.1073,0.1115,0.1146,0.1204,0.1225,0.1249,0.131,0.1327,0.1399,0.1442,0.147,0.1553,0.1609,0.1667,0.1723,0.1683,0.1688,0.1673,0.1759,0.1758,0.1575,0.1571,0.1579,0.1576,0.1573,0.157,0.1568,0,0.1052,0.1069,0.114,0.1158,0.119,0.1232,0.1252,0.1317,0.1334,0.1434,0.1442,0.1534,0.158,0.1576,0.1643,0.1666,0.1653,0.1639,0.1592,0.1564,0.1558,0.1557,0.1556,0.1564,0.1563,0.1563,0.1562,0,0.1011,0.1053,0.108,0.1119,0.115,0.1163,0.1202,0.1205,0.1275,0.136,0.1378,0.1408,0.147,0.1508,0.1545,0.1557,0.1631,0.1609,0.1614,0.157,0.1546,0.1543,0.1545,0.1552,0.1553,0.1554,0.1555,0,0.0989,0.0998,0.1043,0.1064,0.1099,0.108,0.1106,0.1117,0.1143,0.1251,0.1256,0.1357,0.1448,0.1453,0.1482,0.1489,0.1464,0.1405,0.1421,0.1433,0.1364,0.1311,0.1237,0,0,0,0,0,0.0957,0.0956,0.0977,0.0985,0.1012,0.1026,0.1062,0.1085,0.1161,0.1138,0.119,0.1238,0.128,0.1332,0.1312,0.1426,0.1475,0.1395,0.1416,0.1498,0.1509,0.1442,0,0,0,0,0,0,0.0934,0.0958,0.0954,0.0914,0.0904,0.0909,0.0928,0.0973,0.096,0.1055,0.1086,0.1164,0.1229,0.1288,0.1293,0.1309,0.1294,0.1462,0.1458,0.1491,0.1502,0.1511,0.1446,0,0,0,0,0]},{"header":{"parameterUnit":"m.s-1","parameterCategory":2,"la1":30.2991,"la2":30.254,"lo1":-89.0895,"lo2":-89.0444,"dy":0.0017,"dx":0.0017,"nx":28,"ny":28,"refTime":"2025-09-03T03:00:00:Z","depth":"4","parameterNumber":3,"parameterNumberName":"V-component_of_CURRENTS"},"data":[0,0,0,0,0,0,0,0,0,0,0,0,0,0,0,0,0,0,0,0,0,0,0,0,0,0,0,0,0,0,0,0,0,0,0,0,0,0,0,0,0,0,0,0,0,0,0,0,0,0,0,0,0,0,0,0,0,0,0.0087,0.0087,0,0.008,0.008,0.008,0.0077,0.0077,0.0077,0.0077,0.0067,0.0067,0.0066,0,0,0,0,0,0,0,0,0,0,0,0,0,0.0087,0.0087,0.0087,0.0087,0.0087,0.008,0.008,0.008,0.0077,0.0077,0.0077,0.0077,0.0067,0.0067,0.0066,0,0,0,0,0,0,0,0,0,0,0,0,0,0.0084,0.0088,0.0088,0.0085,0.0085,0.008,0.008,0.008,0.0077,0.0077,0.0077,0.0077,0.0067,0.0067,0.0066,0.0063,0,0,0.0065,0.0065,0,0,0,0,0,0,0,0,0.0085,0.0084,0.0085,0.0085,0.0085,0.0079,0.0076,0.0074,0.0077,0.008,0.0077,0.0077,0.0071,0.007,0.0069,0.0063,0.0062,0.0065,0.0065,0.0064,0.0064,0,0,0,0,0,0,0,0.0085,0.0085,0.0084,0.0085,0.0085,0.008,0.008,0.0076,0.0075,0.0079,0.0079,0.0078,0.0071,0.0069,0.0068,0.0062,0.0065,0.0065,0.0064,0.0064,0.006,0.006,0,0,0,0,0,0,0.0086,0.0085,0.0085,0.0084,0.0085,0.008,0.008,0.0081,0.0075,0.0074,0.0078,0.0078,0.007,0.0069,0.0068,0.0076,0.0064,0.0064,0.0064,0.006,0.006,0.006,0,0,0,0,0,0,0.0086,0.0087,0.0085,0.0084,0.0084,0.008,0.0081,0.0081,0.0081,0.0074,0.0073,0.0079,0.007,0.0069,0.0068,0.0075,0.0064,0.0064,0.006,0.006,0.006,0.0085,0,0,0,0,0,0,0.0087,0.0087,0.009,0.0084,0.0084,0.0085,0.0081,0.0081,0.008,0.008,0.0075,0.0074,0.007,0.0069,0.0068,0.0075,0.0063,0.006,0.006,0.006,0.0084,0.0086,0.0088,0,0,0,0,0,0.0087,0.0092,0.009,0.009,0.0088,0.0085,0.0084,0.0082,0.008,0.0081,0.0079,0.0074,0.007,0.0069,0.0068,0.0074,0.006,0.006,0.006,0.0083,0.0086,0.0088,0,0,0,0,0,0,0.0095,0.0092,0.009,0.0094,0.009,0.0085,0.0086,0.0083,0.0082,0.0082,0.0076,0.0075,0.0078,0.0071,0.007,0.0073,0.0064,0.0064,0.0082,0.0084,0.0086,0.0093,0.0063,0,0,0,0,0,0.0097,0.01,0.0095,0.0099,0.0097,0.0091,0.009,0.0087,0.0085,0.0084,0.0081,0.0078,0.0077,0.0077,0.0074,0.0075,0.0066,0.0078,0.008,0.0082,0.0086,0.0081,0.0082,0.0062,0.0062,0.0062,0,0,0.0102,0.0101,0.0103,0.0101,0.0097,0.0101,0.0091,0.009,0.0095,0.0083,0.009,0.0085,0.0079,0.0083,0.0083,0.0079,0.0081,0.0082,0.0084,0.0087,0.0081,0.0083,0.0085,0.0062,0.0062,0.0062,0,0,0.0112,0.0111,0.0116,0.0114,0.011,0.0108,0.0108,0.0103,0.0103,0.0105,0.0101,0.01,0.0096,0.0097,0.0096,0.0106,0.0091,0.0102,0.0118,0.0113,0.0115,0.0116,0.01,0.01,0.0103,0.0103,0.0103,0,0.0119,0.0124,0.0117,0.0121,0.0124,0.0112,0.012,0.0118,0.0115,0.0121,0.0111,0.0112,0.0105,0.0116,0.0118,0.0111,0.0101,0.0111,0.0116,0.0117,0.0118,0.0102,0.0101,0.0105,0.0105,0.0104,0.0104,0,0.0131,0.0137,0.014,0.0144,0.0145,0.0149,0.0145,0.0149,0.0146,0.0146,0.0152,0.0141,0.0143,0.0139,0.013,0.0137,0.0124,0.0119,0.0112,0.0122,0.0104,0.0103,0.0106,0.0106,0.0106,0.0105,0,0,0.0146,0.0149,0.0151,0.0159,0.0158,0.0162,0.0172,0.0181,0.0195,0.0184,0.0201,0.0191,0.0183,0.0181,0.0169,0.0162,0.0154,0.0144,0.0143,0.013,0.0133,0.0124,0.0122,0.015,0.015,0.015,0.0115,0,0.016,0.0174,0.0172,0.0191,0.0199,0.0197,0.0211,0.0218,0.0219,0.0232,0.0219,0.0228,0.02,0.0202,0.0189,0.0169,0.0154,0.0164,0.0123,0.0121,0.0114,0.0121,0.0151,0.0114,0.0114,0.0114,0.0113,0,0.0174,0.0183,0.0201,0.0221,0.0225,0.0237,0.0261,0.0274,0.0286,0.0287,0.0286,0.0274,0.0265,0.0239,0.0201,0.0207,0.0171,0.0147,0.0146,0.0129,0.0111,0.0102,0.0112,0.0112,0.0112,0.0112,0.0112,0,0.0188,0.0206,0.0222,0.0227,0.0245,0.026,0.0276,0.0293,0.0316,0.0325,0.034,0.0318,0.0316,0.027,0.0215,0.0208,0.0169,0.0155,0.011,0.0108,0.0116,0.0114,0.0125,0.0125,0.0125,0.0125,0.0125,0,0.0203,0.022,0.0232,0.0242,0.0277,0.0282,0.0323,0.0335,0.0362,0.0398,0.0372,0.0386,0.0325,0.0293,0.0231,0.017,0.018,0.0114,0.0102,0.0125,0.0126,0.0114,0.0114,0.0123,0.0124,0.0124,0.0124,0,0.0215,0.0221,0.0246,0.0271,0.0283,0.0311,0.0359,0.0391,0.0409,0.0453,0.046,0.0442,0.0402,0.0333,0.0261,0.02,0.0137,0.011,0.0138,0.0127,0.0071,0.0072,0.0055,0.0055,0.0054,0.0054,0.0054,0,0.0221,0.0233,0.0268,0.0293,0.0306,0.0348,0.0383,0.0413,0.0451,0.0488,0.0514,0.0488,0.0464,0.0358,0.0275,0.0158,0.0136,0.0091,0.0079,0.0076,0.0066,0.0068,0.0069,0.0053,0.0053,0.0053,0.0053,0,0.0237,0.0249,0.0272,0.0319,0.0358,0.0406,0.0457,0.0486,0.0529,0.0543,0.0559,0.0505,0.046,0.0365,0.0276,0.0189,0.0114,0.0085,0.0085,0.0074,0.0073,0.0064,0.0066,0.0051,0.0051,0.0051,0.0051,0,0.0252,0.0271,0.0302,0.0346,0.0397,0.0451,0.0476,0.052,0.0554,0.059,0.0591,0.054,0.0508,0.0381,0.0301,0.0215,0.0185,0.0137,0.0134,0.0134,0.0164,0.0175,0.0177,0,0,0,0,0,0.0266,0.0288,0.0329,0.0378,0.043,0.0462,0.0523,0.0545,0.0581,0.0597,0.0596,0.0553,0.0439,0.0391,0.0306,0.0281,0.0163,0.0174,0.0105,0.0042,0.0044,0.0064,0,0,0,0,0,0,0.0276,0.0311,0.0328,0.0396,0.0436,0.0498,0.0539,0.0565,0.0574,0.0592,0.0538,0.0513,0.0407,0.0491,0.03,0.0275,0.0213,0.0125,0.0123,0.0041,0.0043,0.0044,0.0065,0,0,0,0,0]}]]